Location: Hilton Head Island
(32.2163°N, 80.7526°W)
Time: 16:08:45
(UTC-05:00)

Explorer 11/Cluster Stage 4 - Pass Details

Date: 18 February 2026
Orbit: 463 x 1176 km, 28.8° (Epoch: 6 March)

Event Time Altitude Azimuth Distance (km) Brightness Sun altitude
Rises 14:53:36 0° 261° (W) 2,651 9.9 35.5°
Reaches altitude 10° 14:55:59 10° 256° (WSW) 1,693 9.3 35.2°
Maximum altitude 14:59:40 49° 180° (S) 605 7.1 34.6°
Drops below altitude 10° 15:03:08 10° 104° (ESE) 1,598 8.0 34.1°
Sets 15:05:19 0° 99° (E) 2,481 8.9 33.8°
